Location: Flotzheim
(48.8375°N, 10.8136°E)
Time: 03:51:50
(UTC+00:00)

Aureole 3 - Pass Details

Date: 23 January 2021
Orbit: 381 x 1231 km, 82.5° (Epoch: 26 February)

Event Time Altitude Azimuth Distance (km) Brightness Sun altitude
Rises 17:35:46 0° 348° (NNW) 2,591 6.8 -15.5°
Reaches altitude 10° 17:38:02 10° 347° (NNW) 1,606 5.7 -15.9°
Maximum altitude 17:41:25 72° 263° (W) 439 2.9 -16.4°
Drops below altitude 10° 17:44:24 10° 178° (S) 1,418 5.5 -16.9°
Sets 17:46:17 0° 176° (S) 2,249 6.5 -17.2°
